DW8108 Weather Reports


Display with metric or nautical units.
time (UTC)temp
F
wind
direction
speed
MPH
gust
MPH
rain 1hr
in
rain 24hr
in
rain mn
in
humidity
%
barometer
mb
20260502161557 50 0.0 10.0 0.00 0.00 0.00 53 1020.3
20260502160106 50 0.0 12.0 0.00 0.00 0.00 55 1020.3
20260502151602 51 0.0 10.0 0.00 0.00 0.00 55 1020.4
20260502123023 34 0.0 0.0 0.00 0.00 0.00 93 1020.0
20260502121520 33 0.0 0.0 0.00 0.00 0.00 93 1019.9
20260502114527 31 0.0 0.0 0.00 0.00 0.00 91 1019.7
20260502113020 31 0.0 0.0 0.00 0.00 0.00 91 1019.6
20260502111515 31 0.0 0.0 0.00 0.00 0.00 90 1019.5
20260502110018 31 0.0 0.0 0.00 0.00 0.00 89 1019.4
20260502104519 31 0.0 0.0 0.00 0.00 0.00 89 1019.3
20260502103011 31 0.0 0.0 0.00 0.00 0.00 88 1019.2
20260502101510 31 0.0 0.0 0.00 0.00 0.00 88 1019.2
20260502091504 33 0.0 0.0 0.00 0.00 0.00 88 1019.2
20260502070047 38 0.0 0.0 0.00 0.03 0.00 81 1019.1
20260502064610 39 0.0 0.0 0.00 0.12 0.00 82 1019.1
20260502063045 39 0.0 0.0 0.00 0.12 0.00 82 1019.2
20260502061536 39 0.0 0.0 0.00 0.12 0.00 82 1019.3
20260502060044 39 0.0 3.0 0.00 0.12 0.00 82 1019.4
20260502054534 39 0.0 3.0 0.00 0.12 0.00 82 1019.3
20260502053033 39 0.0 3.0 0.00 0.12 0.00 82 1019.5
20260502051535 39 0.0 0.0 0.00 0.12 0.00 82 1019.6
20260502050033 39 0.0 0.0 0.00 0.12 0.00 82 1019.6
20260502044528 39 0.0 0.0 0.00 0.12 0.12 81 1019.6
20260502043029 38 0.0 0.0 0.00 0.12 0.12 81 1019.6
20260502041534 38 0.0 0.0 0.00 0.12 0.12 81 1019.6
20260502040027 38 0.0 0.0 0.00 0.12 0.12 82 1019.7
20260502034526 38 0.0 0.0 0.00 0.12 0.12 81 1019.6
20260502033028 38 0.0 0.0 0.00 0.12 0.12 79 1019.4
20260502031523 38 0.0 1.0 0.00 0.12 0.12 78 1019.4
20260502030021 39 0.0 0.0 0.00 0.12 0.12 77 1019.4
20260502024518 39 0.0 3.0 0.00 0.12 0.12 76 1019.2
20260502023015 40 0.0 4.0 0.00 0.12 0.12 75 1018.9
20260502021512 40 0.0 4.0 0.00 0.12 0.12 74 1018.7
20260502020014 41 0.0 4.0 0.00 0.12 0.12 73 1018.7
20260502014508 41 0.0 10.0 0.00 0.12 0.12 72 1018.3
20260502013005 42 0.0 8.0 0.00 0.12 0.12 72 1018.2
20260502011504 43 0.0 6.0 0.00 0.12 0.12 71 1017.9
20260502010003 43 0.0 9.0 0.00 0.12 0.12 70 1017.6
20260502004559 44 0.0 10.0 0.00 0.12 0.12 69 1017.4
20260502003059 45 0.0 11.0 0.00 0.12 0.12 68 1017.4
20260502001558 46 0.0 9.0 0.00 0.12 0.12 68 1017.2
20260502000058 46 0.0 10.0 0.00 0.12 0.12 66 1017.1
20260501234556 47 0.0 10.0 0.00 0.12 0.12 64 1017.2
20260501233103 48 0.0 9.0 0.00 0.12 0.12 64 1017.0
20260501231606 49 0.0 7.0 0.00 0.12 0.12 63 1017.1
20260501230057 50 0.0 12.0 0.00 0.12 0.12 60 1017.2
20260501224554 51 0.0 12.0 0.00 0.12 0.12 58 1017.1
20260501223054 52 0.0 13.0 0.00 0.12 0.12 58 1017.2
20260501221553 52 0.0 11.0 0.00 0.12 0.12 59 1017.1
20260501220106 51 0.0 7.0 0.00 0.12 0.12 61 1017.0
20260501214551 51 0.0 10.0 0.00 0.12 0.12 58 1017.1
20260501213051 50 0.0 10.0 0.00 0.12 0.12 62 1017.0
20260501211557 50 0.0 12.0 0.00 0.12 0.12 61 1017.0
20260501210048 50 0.0 9.0 0.00 0.12 0.12 64 1017.0
20260501204559 49 0.0 8.0 0.00 0.12 0.12 63 1017.0
20260501203047 50 0.0 10.0 0.00 0.12 0.12 62 1017.1
20260501201546 49 0.0 12.0 0.00 0.12 0.12 61 1017.0
20260501200046 50 0.0 10.0 0.00 0.12 0.12 65 1017.1
20260501194546 50 0.0 11.0 0.00 0.12 0.12 63 1017.0
20260501193044 50 0.0 9.0 0.00 0.12 0.12 64 1017.0
20260501191545 49 0.0 13.0 0.00 0.12 0.12 63 1017.0
20260501190045 49 0.0 14.0 0.00 0.12 0.12 64 1016.9
20260501184546 50 0.0 8.0 0.00 0.12 0.12 63 1016.7
20260501183046 49 0.0 14.0 0.00 0.12 0.12 65 1016.6
20260501181538 49 0.0 14.0 0.00 0.12 0.12 61 1016.5
20260501180037 50 0.0 15.0 0.00 0.12 0.12 70 1016.5
20260501174538 48 0.0 12.0 0.00 0.12 0.12 71 1016.5
20260501173035 48 0.0 12.0 0.00 0.12 0.12 70 1016.4
20260501171547 48 0.0 7.0 0.00 0.12 0.12 73 1016.4
20260501170032 49 0.0 14.0 0.00 0.12 0.12 69 1016.2
20260501164530 51 0.0 7.0 0.00 0.12 0.12 70 1016.1
20260501163028 51 0.0 9.0 0.00 0.12 0.12 75 1016.1